QUETZSAT 1

Last updated on Thu Mar 05 2026 00:02:56 GMT+0000 (Coordinated Universal Time)

1 37826U 11054A 26063.34558462 -.00000253 00000+0 00000+0 0 9990 2 37826 0.0535 289.0086 0002753 70.1674 210.3159 1.00271265 48823
UTC large
Height (km)
Speed (km/s)
/
Latitude / Longitude
Inclination (degrees)
Orbital Period (minutes)
Azimuth
Elevation
Range (km)
Doppler Factor

Next 0 passes for location: London (51.5072 / 0.1276)

Sorry there are no passes over London.